TimeMST,TemperatureF,Dew PointF,Humidity,Sea Level PressureIn,VisibilityMPH,Wind Direction,Wind SpeedMPH,Gust SpeedMPH,PrecipitationIn,Events,Conditions,WindDirDegrees,DateUTC
12:05 AM,-11.2,-9999,N/A,30.22,10.0,Calm,Calm,-,N/A,,Clear,0,2013-01-06 07:05:00
12:25 AM,-11.2,-9999,N/A,30.21,10.0,Calm,Calm,-,N/A,,Clear,0,2013-01-06 07:25:00
12:45 AM,-11.2,-9999,N/A,30.20,10.0,Calm,Calm,-,N/A,,Clear,0,2013-01-06 07:45:00
1:05 AM,-11.2,-9999,N/A,30.20,10.0,Calm,Calm,-,N/A,,Clear,0,2013-01-06 08:05:00
1:25 AM,-11.2,-9999,N/A,30.19,10.0,Calm,Calm,-,N/A,,Clear,0,2013-01-06 08:25:00
1:45 AM,-11.2,-9999,N/A,30.19,10.0,Calm,Calm,-,N/A,,Clear,0,2013-01-06 08:45:00
2:05 AM,-13.0,-9999,N/A,30.18,10.0,Calm,Calm,-,N/A,,Clear,0,2013-01-06 09:05:00
2:25 AM,-13.0,-9999,N/A,30.18,10.0,Calm,Calm,-,N/A,,Clear,0,2013-01-06 09:25:00
2:45 AM,-13.0,-9999,N/A,30.18,10.0,Calm,Calm,-,N/A,,Clear,0,2013-01-06 09:45:00
3:05 AM,-13.0,-9999,N/A,30.17,10.0,Calm,Calm,-,N/A,,Clear,0,2013-01-06 10:05:00
3:25 AM,-11.2,-9999,N/A,30.17,10.0,Calm,Calm,-,N/A,,Clear,0,2013-01-06 10:25:00
3:45 AM,-11.2,-9999,N/A,30.16,10.0,Calm,Calm,-,N/A,,Clear,0,2013-01-06 10:45:00
4:05 AM,-11.2,-9999,N/A,30.16,10.0,Calm,Calm,-,N/A,,Clear,0,2013-01-06 11:05:00
4:25 AM,-11.2,-9999,N/A,30.15,9.0,Calm,Calm,-,N/A,,Clear,0,2013-01-06 11:25:00
5:05 AM,-9.4,-9999,N/A,30.14,10.0,Calm,Calm,-,N/A,,Clear,0,2013-01-06 12:05:00
5:25 AM,-7.6,-9999,N/A,30.13,10.0,Calm,Calm,-,N/A,,Scattered Clouds,0,2013-01-06 12:25:00
5:45 AM,-7.6,-9999,N/A,30.13,10.0,Calm,Calm,-,N/A,,Scattered Clouds,0,2013-01-06 12:45:00
6:05 AM,-7.6,-9999,N/A,30.13,10.0,Calm,Calm,-,N/A,,Clear,0,2013-01-06 13:05:00
6:25 AM,-4.0,-9999,N/A,30.12,10.0,Calm,Calm,-,N/A,,Scattered Clouds,0,2013-01-06 13:25:00
6:45 AM,-4.0,-9999,N/A,30.13,10.0,Calm,Calm,-,N/A,,Partly Cloudy,0,2013-01-06 13:45:00
7:05 AM,-4.0,-9999,N/A,30.12,10.0,Calm,Calm,-,N/A,,Partly Cloudy,0,2013-01-06 14:05:00
7:25 AM,-4.0,-9999,N/A,30.12,10.0,Calm,Calm,-,N/A,,Mostly Cloudy,0,2013-01-06 14:25:00
7:45 AM,-2.2,-9999,N/A,30.12,10.0,NW,3.5,-,N/A,,Overcast,310,2013-01-06 14:45:00
8:05 AM,-2.2,-9999,N/A,30.11,10.0,Calm,Calm,-,N/A,,Overcast,0,2013-01-06 15:05:00
8:25 AM,-0.4,-9999,N/A,30.10,10.0,Calm,Calm,-,N/A,,Overcast,0,2013-01-06 15:25:00
8:45 AM,-0.4,-9999,N/A,30.11,10.0,Calm,Calm,-,N/A,,Overcast,0,2013-01-06 15:45:00
9:05 AM,-0.4,-9999,N/A,30.10,10.0,Calm,Calm,-,N/A,,Overcast,0,2013-01-06 16:05:00
9:25 AM,1.4,-9999,N/A,30.11,10.0,Calm,Calm,-,N/A,,Overcast,0,2013-01-06 16:25:00
9:45 AM,1.4,-9999,N/A,30.10,10.0,Calm,Calm,-,N/A,,Overcast,0,2013-01-06 16:45:00
10:05 AM,3.2,-9999,N/A,30.10,10.0,Calm,Calm,-,N/A,,Scattered Clouds,0,2013-01-06 17:05:00
10:25 AM,5.0,-9999,N/A,30.10,10.0,Calm,Calm,-,N/A,,Mostly Cloudy,0,2013-01-06 17:25:00
10:45 AM,6.8,-9999,N/A,30.09,10.0,Calm,Calm,-,N/A,,Scattered Clouds,0,2013-01-06 17:45:00
11:05 AM,6.8,-9999,N/A,30.08,10.0,Calm,Calm,-,N/A,,Partly Cloudy,0,2013-01-06 18:05:00
11:25 AM,8.6,-9999,N/A,30.07,10.0,Calm,Calm,-,N/A,,Partly Cloudy,0,2013-01-06 18:25:00
11:45 AM,8.6,-9999,N/A,30.06,10.0,Calm,Calm,-,N/A,,Partly Cloudy,0,2013-01-06 18:45:00
12:05 PM,10.4,-9999,N/A,30.05,10.0,Calm,Calm,-,N/A,Snow,Light Snow,0,2013-01-06 19:05:00
12:25 PM,10.4,-9999,N/A,30.04,2.0,Calm,Calm,-,N/A,Snow,Light Snow,0,2013-01-06 19:25:00
12:45 PM,12.2,-9999,N/A,30.03,3.0,Calm,Calm,-,N/A,Snow,Light Snow,0,2013-01-06 19:45:00
1:05 PM,12.2,-9999,N/A,30.02,1.5,Calm,Calm,-,N/A,Snow,Light Snow,0,2013-01-06 20:05:00
1:25 PM,14.0,-9999,N/A,30.01,2.0,NE,3.5,-,N/A,Snow,Light Snow,40,2013-01-06 20:25:00
2:05 PM,15.8,-9999,N/A,30.00,2.5,SW,3.5,-,N/A,Snow,Light Snow,220,2013-01-06 21:05:00
2:25 PM,15.8,-9999,N/A,30.00,3.0,Calm,Calm,-,N/A,Snow,Light Snow,0,2013-01-06 21:25:00
2:45 PM,15.8,-9999,N/A,30.00,5.0,Calm,Calm,-,N/A,Snow,Light Snow,0,2013-01-06 21:45:00
3:05 PM,15.8,-9999,N/A,30.00,10.0,Calm,Calm,-,N/A,Snow,Light Snow,0,2013-01-06 22:05:00
3:25 PM,15.8,-9999,N/A,30.00,7.0,NE,3.5,-,N/A,Snow,Light Snow,40,2013-01-06 22:25:00
3:45 PM,15.8,-9999,N/A,30.00,10.0,NNE,4.6,-,N/A,,Mostly Cloudy,20,2013-01-06 22:45:00
4:05 PM,17.6,-9999,N/A,30.00,10.0,Calm,Calm,-,N/A,,Overcast,0,2013-01-06 23:05:00
4:25 PM,17.6,-9999,N/A,29.99,10.0,Calm,Calm,-,N/A,,Overcast,0,2013-01-06 23:25:00
4:45 PM,17.6,-9999,N/A,29.99,10.0,SW,3.5,-,N/A,,Overcast,230,2013-01-06 23:45:00
5:05 PM,17.6,-9999,N/A,29.99,10.0,Calm,Calm,-,N/A,,Overcast,0,2013-01-07 00:05:00
5:25 PM,15.8,-9999,N/A,30.00,10.0,Calm,Calm,-,N/A,,Overcast,0,2013-01-07 00:25:00
5:45 PM,15.8,-9999,N/A,30.00,10.0,Calm,Calm,-,N/A,,Overcast,0,2013-01-07 00:45:00
6:05 PM,15.8,-9999,N/A,30.00,10.0,Calm,Calm,-,N/A,,Overcast,0,2013-01-07 01:05:00
6:25 PM,17.6,-9999,N/A,30.00,10.0,Calm,Calm,-,N/A,,Overcast,0,2013-01-07 01:25:00
6:45 PM,15.8,-9999,N/A,30.00,10.0,Calm,Calm,-,N/A,,Overcast,0,2013-01-07 01:45:00
7:05 PM,14.0,-9999,N/A,30.00,10.0,Calm,Calm,-,N/A,,Mostly Cloudy,0,2013-01-07 02:05:00
7:25 PM,14.0,-9999,N/A,30.00,10.0,North,4.6,-,N/A,,Overcast,360,2013-01-07 02:25:00
8:05 PM,14.0,-9999,N/A,30.01,10.0,Calm,Calm,-,N/A,,Overcast,0,2013-01-07 03:05:00
9:05 PM,10.4,-9999,N/A,29.99,10.0,SW,4.6,-,N/A,,Overcast,220,2013-01-07 04:05:00
9:25 PM,8.6,-9999,N/A,30.01,10.0,NNE,3.5,-,N/A,,Mostly Cloudy,30,2013-01-07 04:25:00
9:45 PM,6.8,-9999,N/A,30.01,10.0,North,4.6,-,N/A,,Partly Cloudy,360,2013-01-07 04:45:00
10:25 PM,5.0,-9999,N/A,30.02,10.0,NE,5.8,-,N/A,,Overcast,40,2013-01-07 05:25:00
10:45 PM,5.0,-9999,N/A,30.02,10.0,Calm,Calm,-,N/A,,Mostly Cloudy,0,2013-01-07 05:45:00
11:05 PM,5.0,-9999,N/A,30.02,10.0,Calm,Calm,-,N/A,,Mostly Cloudy,0,2013-01-07 06:05:00
11:25 PM,5.0,-9999,N/A,30.02,10.0,Calm,Calm,-,N/A,,Scattered Clouds,0,2013-01-07 06:25:00
11:45 PM,5.0,-9999,N/A,30.03,10.0,Calm,Calm,-,N/A,,Clear,0,2013-01-07 06:45:00